Time,TemperatureF,DewpointF,PressureIn,WindDirection,WindDirectionDegrees,WindSpeedMPH,WindSpeedGustMPH,Humidity,HourlyPrecipIn,Conditions,Clouds,dailyrainin,SoftwareType,DateUTC
2013-07-06 00:10:00,75.7,71.0,30.02,WSW,246,0.0,3.0,85,0.00,,,0.00,weatherlink.com 1.10,2013-07-06 04:10:00,
2013-07-06 00:25:00,75.8,71.0,30.02,North,8,3.0,4.0,85,0.00,,,0.00,weatherlink.com 1.10,2013-07-06 04:25:00,
2013-07-06 00:40:00,75.8,71.0,30.02,SW,235,0.0,3.0,85,0.00,,,0.00,weatherlink.com 1.10,2013-07-06 04:40:00,
2013-07-06 00:55:00,75.7,71.0,30.02,WNW,297,0.0,3.0,85,0.00,,,0.00,weatherlink.com 1.10,2013-07-06 04:55:00,
2013-07-06 01:10:00,75.5,71.0,30.02,NNW,339,1.0,3.0,85,0.00,,,0.00,weatherlink.com 1.10,2013-07-06 05:10:00,
2013-07-06 01:25:00,75.3,71.0,30.02,WNW,301,3.0,4.0,86,0.00,,,0.00,weatherlink.com 1.10,2013-07-06 05:25:00,
2013-07-06 01:40:00,75.2,71.0,30.02,NW,307,1.0,6.0,87,0.00,,,0.00,weatherlink.com 1.10,2013-07-06 05:40:00,
2013-07-06 01:55:00,74.9,71.0,30.02,WSW,256,0.0,2.0,87,0.00,,,0.00,weatherlink.com 1.10,2013-07-06 05:55:00,
2013-07-06 02:10:00,74.8,71.0,30.02,NNW,328,1.0,2.0,87,0.00,,,0.00,weatherlink.com 1.10,2013-07-06 06:10:00,
2013-07-06 02:25:00,75.0,71.0,30.02,WSW,253,1.0,5.0,87,0.00,,,0.00,weatherlink.com 1.10,2013-07-06 06:25:00,
2013-07-06 02:40:00,75.3,71.0,30.02,West,270,0.0,4.0,87,0.00,,,0.00,weatherlink.com 1.10,2013-07-06 06:40:00,
2013-07-06 02:55:00,75.3,71.0,30.02,NW,306,0.0,5.0,87,0.00,,,0.00,weatherlink.com 1.10,2013-07-06 06:55:00,
2013-07-06 03:10:00,75.6,71.0,30.02,WSW,250,2.0,5.0,86,0.00,,,0.00,weatherlink.com 1.10,2013-07-06 07:10:00,
2013-07-06 03:25:00,75.3,71.0,30.02,SW,233,0.0,5.0,87,0.00,,,0.00,weatherlink.com 1.10,2013-07-06 07:25:00,
2013-07-06 03:40:00,75.0,71.0,30.02,West,280,1.0,5.0,87,0.00,,,0.00,weatherlink.com 1.10,2013-07-06 07:40:00,
2013-07-06 03:55:00,74.7,71.0,30.02,West,260,0.0,5.0,88,0.00,,,0.00,weatherlink.com 1.10,2013-07-06 07:55:00,
2013-07-06 04:10:00,74.4,71.0,30.02,West,264,0.0,4.0,88,0.00,,,0.00,weatherlink.com 1.10,2013-07-06 08:10:00,
2013-07-06 04:25:00,74.2,71.0,30.01,WSW,255,0.0,4.0,89,0.00,,,0.00,weatherlink.com 1.10,2013-07-06 08:25:00,
2013-07-06 04:40:00,73.9,71.0,30.02,West,274,4.0,5.0,90,0.00,,,0.00,weatherlink.com 1.10,2013-07-06 08:40:00,
2013-07-06 04:55:00,73.9,71.0,30.02,WSW,250,2.0,5.0,90,0.00,,,0.00,weatherlink.com 1.10,2013-07-06 08:55:00,
2013-07-06 05:10:00,73.9,71.0,30.02,South,170,0.0,5.0,90,0.00,,,0.00,weatherlink.com 1.10,2013-07-06 09:10:00,
2013-07-06 05:25:00,73.8,71.0,30.02,WNW,298,3.0,7.0,90,0.00,,,0.00,weatherlink.com 1.10,2013-07-06 09:25:00,
2013-07-06 05:40:00,73.5,71.0,30.02,WNW,293,4.0,5.0,90,0.00,,,0.00,weatherlink.com 1.10,2013-07-06 09:40:00,
2013-07-06 05:55:00,73.8,71.0,30.03,West,262,1.0,6.0,90,0.00,,,0.00,weatherlink.com 1.10,2013-07-06 09:55:00,
2013-07-06 06:10:00,73.9,71.0,30.03,West,278,2.0,6.0,89,0.00,,,0.00,weatherlink.com 1.10,2013-07-06 10:10:00,
2013-07-06 06:25:00,74.5,71.0,30.03,WNW,283,3.0,5.0,89,0.00,,,0.00,weatherlink.com 1.10,2013-07-06 10:25:00,
2013-07-06 06:40:00,75.5,71.0,30.03,WNW,287,0.0,7.0,87,0.00,,,0.00,weatherlink.com 1.10,2013-07-06 10:40:00,
2013-07-06 06:56:00,76.0,71.0,30.03,WNW,294,1.0,7.0,85,0.00,,,0.00,weatherlink.com 1.10,2013-07-06 10:56:00,
2013-07-06 07:11:00,76.6,72.0,30.03,SW,233,6.0,8.0,84,0.00,,,0.00,weatherlink.com 1.10,2013-07-06 11:11:00,
2013-07-06 07:25:00,77.3,72.0,30.03,WNW,290,4.0,6.0,83,0.00,,,0.00,weatherlink.com 1.10,2013-07-06 11:25:00,
2013-07-06 07:40:00,77.8,72.0,30.04,West,280,1.0,7.0,81,0.00,,,0.00,weatherlink.com 1.10,2013-07-06 11:40:00,
2013-07-06 07:55:00,78.2,72.0,30.04,WSW,256,1.0,9.0,81,0.00,,,0.00,weatherlink.com 1.10,2013-07-06 11:55:00,
2013-07-06 08:10:00,79.2,72.0,30.03,West,267,4.0,7.0,79,0.00,,,0.00,weatherlink.com 1.10,2013-07-06 12:10:00,
2013-07-06 08:25:00,79.3,72.0,30.03,North,349,5.0,9.0,78,0.00,,,0.00,weatherlink.com 1.10,2013-07-06 12:25:00,
2013-07-06 08:40:00,80.1,72.0,30.03,SW,235,2.0,8.0,77,0.00,,,0.00,weatherlink.com 1.10,2013-07-06 12:40:00,
2013-07-06 08:56:00,81.1,73.0,30.02,West,280,2.0,8.0,75,0.00,,,0.00,weatherlink.com 1.10,2013-07-06 12:56:00,
2013-07-06 09:11:00,80.8,72.0,30.02,WNW,298,2.0,7.0,75,0.00,,,0.00,weatherlink.com 1.10,2013-07-06 13:11:00,
2013-07-06 09:26:00,81.8,72.0,30.02,West,259,7.0,8.0,72,0.00,,,0.00,weatherlink.com 1.10,2013-07-06 13:26:00,
2013-07-06 09:41:00,82.1,72.0,30.02,NW,305,2.0,7.0,71,0.00,,,0.00,weatherlink.com 1.10,2013-07-06 13:41:00,
2013-07-06 09:56:00,81.5,72.0,30.02,SW,221,3.0,12.0,72,0.00,,,0.00,weatherlink.com 1.10,2013-07-06 13:56:00,
2013-07-06 10:11:00,81.0,70.0,30.02,NW,326,5.0,10.0,70,0.00,,,0.00,weatherlink.com 1.10,2013-07-06 14:11:00,
2013-07-06 10:27:00,80.9,71.0,30.02,NW,318,4.0,9.0,72,0.00,,,0.00,weatherlink.com 1.10,2013-07-06 14:27:00,
2013-07-06 10:41:00,81.2,71.0,30.02,West,267,6.0,6.0,72,0.00,,,0.00,weatherlink.com 1.10,2013-07-06 14:41:00,
2013-07-06 10:56:00,82.0,73.0,30.02,NW,311,2.0,8.0,74,0.00,,,0.00,weatherlink.com 1.10,2013-07-06 14:56:00,
2013-07-06 11:11:00,81.9,72.0,30.02,WSW,242,6.0,9.0,72,0.00,,,0.00,weatherlink.com 1.10,2013-07-06 15:11:00,
2013-07-06 11:26:00,82.3,72.0,30.01,West,280,2.0,9.0,71,0.00,,,0.00,weatherlink.com 1.10,2013-07-06 15:26:00,
2013-07-06 11:41:00,82.7,72.0,30.02,West,278,4.0,9.0,69,0.00,,,0.00,weatherlink.com 1.10,2013-07-06 15:41:00,
2013-07-06 11:56:00,82.5,72.0,30.01,West,277,2.0,12.0,70,0.00,,,0.00,weatherlink.com 1.10,2013-07-06 15:56:00,
2013-07-06 12:11:00,82.7,70.0,30.01,WNW,291,3.0,13.0,66,0.00,,,0.00,weatherlink.com 1.10,2013-07-06 16:11:00,
2013-07-06 12:26:00,82.4,71.0,30.01,West,259,3.0,9.0,69,0.00,,,0.00,weatherlink.com 1.10,2013-07-06 16:26:00,
2013-07-06 13:11:00,83.1,71.0,30.01,SW,235,3.0,18.0,67,0.00,,,0.00,weatherlink.com 1.10,2013-07-06 17:11:00,
2013-07-06 13:41:00,83.7,70.0,30.00,NW,305,6.0,9.0,63,0.00,,,0.00,weatherlink.com 1.10,2013-07-06 17:41:00,
2013-07-06 13:56:00,84.7,70.0,30.00,NW,316,3.0,8.0,62,0.00,,,0.00,weatherlink.com 1.10,2013-07-06 17:56:00,
2013-07-06 14:11:00,84.2,70.0,30.00,SW,226,2.0,14.0,63,0.00,,,0.00,weatherlink.com 1.10,2013-07-06 18:11:00,
2013-07-06 14:26:00,84.5,70.0,30.00,West,260,7.0,10.0,62,0.00,,,0.00,weatherlink.com 1.10,2013-07-06 18:26:00,
2013-07-06 14:56:00,82.7,72.0,29.99,NW,307,1.0,10.0,69,0.00,,,0.00,weatherlink.com 1.10,2013-07-06 18:56:00,
2013-07-06 15:11:00,84.3,72.0,29.99,NW,307,2.0,10.0,66,0.00,,,0.00,weatherlink.com 1.10,2013-07-06 19:11:00,
2013-07-06 15:56:00,84.3,69.0,29.98,SSE,157,2.0,10.0,61,0.00,,,0.00,weatherlink.com 1.10,2013-07-06 19:56:00,
2013-07-06 16:11:00,83.6,70.0,29.98,WNW,300,1.0,10.0,63,0.00,,,0.00,weatherlink.com 1.10,2013-07-06 20:11:00,
2013-07-06 16:41:00,84.7,70.0,29.97,West,280,2.0,8.0,62,0.00,,,0.00,weatherlink.com 1.10,2013-07-06 20:41:00,
2013-07-06 16:56:00,84.0,68.0,29.96,West,280,3.0,14.0,58,0.00,,,0.00,weatherlink.com 1.10,2013-07-06 20:56:00,
2013-07-06 17:11:00,84.1,66.0,29.96,NNW,337,5.0,10.0,55,0.00,,,0.00,weatherlink.com 1.10,2013-07-06 21:11:00,
2013-07-06 18:11:00,83.3,66.0,29.96,West,274,2.0,8.0,56,0.00,,,0.00,weatherlink.com 1.10,2013-07-06 22:11:00,
2013-07-06 18:56:00,82.2,63.0,29.96,WNW,295,0.0,8.0,52,0.00,,,0.00,weatherlink.com 1.10,2013-07-06 22:56:00,
2013-07-06 19:11:00,82.0,63.0,29.95,WSW,256,1.0,5.0,52,0.00,,,0.00,weatherlink.com 1.10,2013-07-06 23:11:00,
2013-07-06 20:27:00,75.3,63.0,29.97,WSW,241,2.0,4.0,66,0.00,,,0.00,weatherlink.com 1.10,2013-07-07 00:27:00,
2013-07-06 20:57:00,74.5,64.0,29.98,West,281,1.0,3.0,69,0.00,,,0.00,weatherlink.com 1.10,2013-07-07 00:57:00,
2013-07-06 21:12:00,73.3,63.0,29.98,WNW,284,2.0,4.0,71,0.00,,,0.00,weatherlink.com 1.10,2013-07-07 01:12:00,
2013-07-06 21:27:00,73.5,63.0,29.98,WNW,290,1.0,4.0,70,0.00,,,0.00,weatherlink.com 1.10,2013-07-07 01:27:00,
2013-07-06 21:57:00,73.5,63.0,29.98,WNW,293,1.0,6.0,69,0.00,,,0.00,weatherlink.com 1.10,2013-07-07 01:57:00,
2013-07-06 22:12:00,72.9,63.0,29.98,NW,319,3.0,5.0,70,0.00,,,0.00,weatherlink.com 1.10,2013-07-07 02:12:00,
2013-07-06 22:27:00,73.5,63.0,29.98,West,276,1.0,6.0,69,0.00,,,0.00,weatherlink.com 1.10,2013-07-07 02:27:00,
2013-07-06 22:42:00,73.0,63.0,29.99,WNW,300,3.0,5.0,71,0.00,,,0.00,weatherlink.com 1.10,2013-07-07 02:42:00,
2013-07-06 22:57:00,73.5,64.0,29.99,SE,132,0.0,4.0,71,0.00,,,0.00,weatherlink.com 1.10,2013-07-07 02:57:00,
2013-07-06 23:12:00,73.3,63.0,29.99,WNW,294,0.0,6.0,69,0.00,,,0.00,weatherlink.com 1.10,2013-07-07 03:12:00,
2013-07-06 23:27:00,73.7,62.0,29.99,WNW,284,0.0,5.0,68,0.00,,,0.00,weatherlink.com 1.10,2013-07-07 03:27:00,
2013-07-06 23:42:00,73.7,62.0,29.98,NW,311,1.0,7.0,66,0.00,,,0.00,weatherlink.com 1.10,2013-07-07 03:42:00,
2013-07-06 23:58:00,74.6,62.0,29.98,West,266,1.0,7.0,64,0.00,,,0.00,weatherlink.com 1.10,2013-07-07 03:58:00,